CW6726 Weather Reports


time (UTC)temp
C
wind
direction
speed
KPH
gust
KPH
rain 1hr
cm
rain 24hr
cm
rain mn
cm
humidity
%
barometer
mb
20260507102605 17 182 1.6 4.8 0.00 0.00 0.00 53 1013.2
20260507101605 16 181 0.0 8.0 0.00 0.00 0.00 58 1013.2
20260507095604 15 46 0.0 3.2 0.00 0.00 0.00 63 1013.2
20260507095105 15 47 0.0 8.0 0.00 0.00 0.00 64 1013.2
20260507094604 14 157 0.0 0.0 0.00 0.00 0.00 68 1013.2
20260507094106 14 157 0.0 1.6 0.00 0.00 0.00 65 1013.2
20260507091105 13 202 3.2 9.7 0.00 0.00 0.00 70 1013.3
20260507090105 13 273 1.6 4.8 0.00 0.00 0.00 72 1013.4
20260507084605 12 19 0.0 4.8 0.00 0.00 0.00 76 1013.3
20260507083605 12 19 0.0 1.6 0.00 0.00 0.00 79 1013.3
20260507083105 12 19 0.0 4.8 0.00 0.00 0.00 80 1013.2
20260507082105 11 22 1.6 8.0 0.00 0.00 0.00 85 1013.1
20260507081605 11 22 0.0 4.8 0.00 0.00 0.00 86 1013.2
20260507080605 10 28 1.6 8.0 0.00 0.00 0.00 88 1013.2
20260507080105 10 28 0.0 4.8 0.00 0.00 0.00 89 1013.2
20260507075605 10 28 3.2 4.8 0.00 0.00 0.00 89 1013.2
20260507075104 9 32 0.0 4.8 0.00 0.00 0.00 90 1013.2
20260507074105 8 32 1.6 4.8 0.00 0.00 0.00 90 1013.2
20260507073605 8 32 1.6 4.8 0.00 0.00 0.00 90 1013.2
20260507073105 8 32 1.6 4.8 0.00 0.00 0.00 91 1013.2
20260507072605 8 32 1.6 4.8 0.00 0.00 0.00 91 1013.2
20260507072104 8 32 0.0 4.8 0.00 0.00 0.00 91 1013.2
20260507071104 7 32 0.0 4.8 0.00 0.00 0.00 92 1013.2
20260507070605 7 32 1.6 4.8 0.00 0.00 0.00 92 1013.2
20260507070105 7 32 0.0 1.6 0.00 0.00 0.00 92 1013.1
20260507065104 6 32 0.0 0.0 0.00 0.00 0.00 92 1013.2
20260507061104 3 32 0.0 0.0 0.00 0.00 0.00 92 1013.1
20260507060105 3 32 0.0 0.0 0.00 0.00 0.00 91 1012.9
20260507055105 3 32 0.0 0.0 0.00 0.00 0.00 91 1012.9
20260507054604 3 32 0.0 0.0 0.00 0.00 0.00 91 1013.0
20260507053105 2 32 0.0 0.0 0.00 0.00 0.00 91 1012.9
20260507052604 2 32 0.0 0.0 0.00 0.00 0.00 91 1012.8
20260507052105 2 32 0.0 0.0 0.00 0.00 0.00 91 1012.8
20260507051604 2 32 0.0 0.0 0.00 0.00 0.00 91 1012.8
20260507050105 2 32 0.0 0.0 0.00 0.00 0.00 91 1012.7
20260507045605 2 32 0.0 0.0 0.00 0.00 0.00 91 1012.7
20260507044605 2 32 0.0 0.0 0.00 0.00 0.00 91 1012.7
20260507042105 2 32 0.0 0.0 0.00 0.00 0.00 90 1012.7
20260507040107 2 32 0.0 0.0 0.00 0.00 0.00 90 1012.7
20260507035605 2 32 0.0 0.0 0.00 0.00 0.00 90 1012.7
20260507035105 2 32 0.0 0.0 0.00 0.00 0.00 90 1012.7
20260507034605 2 32 0.0 0.0 0.00 0.00 0.00 90 1012.7
20260507032605 2 32 0.0 0.0 0.00 0.00 0.00 90 1012.7
20260507031604 2 32 0.0 0.0 0.00 0.00 0.00 90 1012.7
20260507031105 2 32 0.0 0.0 0.00 0.00 0.00 90 1012.7
20260507025105 2 32 0.0 0.0 0.00 0.00 0.00 89 1012.7
20260507022605 2 32 0.0 0.0 0.00 0.00 0.00 89 1012.6
20260507022105 2 32 0.0 0.0 0.00 0.00 0.00 89 1012.6
20260507014604 2 32 0.0 0.0 0.00 0.00 0.00 89 1012.4
20260507013104 2 32 0.0 0.0 0.00 0.00 0.00 89 1012.4
20260507011605 2 32 0.0 0.0 0.00 0.00 0.00 88 1012.5
20260507010105 2 32 0.0 0.0 0.00 0.00 0.00 88 1012.5
20260507005105 2 32 0.0 0.0 0.00 0.00 0.00 88 1012.5
20260507004605 2 32 0.0 0.0 0.00 0.00 0.00 88 1012.5
20260507002104 3 32 0.0 0.0 0.00 0.00 0.00 88 1012.6
20260507001105 3 32 0.0 0.0 0.00 0.00 0.00 87 1012.6
20260507000105 3 32 0.0 0.0 0.00 0.00 0.00 87 1012.6
20260506233105 3 32 0.0 0.0 0.00 0.00 0.00 87 1012.3
20260506232605 3 32 0.0 0.0 0.00 0.00 0.00 87 1012.3
20260506232104 3 32 0.0 0.0 0.00 0.00 0.00 86 1012.2
20260506230605 3 32 0.0 0.0 0.00 0.00 0.00 86 1012.2
20260506225104 4 32 0.0 0.0 0.00 0.00 0.00 86 1012.2
20260506224605 4 32 0.0 0.0 0.00 0.00 0.00 86 1012.2
20260506224105 4 32 0.0 0.0 0.00 0.00 0.00 85 1012.2
20260506223105 5 32 0.0 0.0 0.00 0.00 0.00 85 1012.2
20260506222605 5 32 0.0 0.0 0.00 0.00 0.00 85 1012.2
20260506222105 5 32 0.0 0.0 0.00 0.00 0.00 84 1012.2
20260506221604 5 32 0.0 3.2 0.00 0.00 0.00 84 1012.2
20260506215605 5 32 0.0 0.0 0.00 0.00 0.00 83 1012.1
20260506213105 6 32 0.0 0.0 0.00 0.00 0.00 82 1011.9
20260506211105 7 32 0.0 0.0 0.00 0.00 0.00 80 1012.0
20260506210605 7 32 0.0 0.0 0.00 0.00 0.00 80 1011.9
20260506210105 7 32 0.0 0.0 0.00 0.00 0.00 79 1011.9
20260506205604 8 32 0.0 0.0 0.00 0.00 0.00 79 1011.8
20260506205106 8 32 0.0 0.0 0.00 0.00 0.00 78 1011.8
20260506204605 8 32 0.0 1.6 0.00 0.00 0.00 77 1011.7
20260506203105 9 32 0.0 0.0 0.00 0.00 0.00 75 1011.6
20260506202605 10 32 0.0 0.0 0.00 0.00 0.00 74 1011.6
20260506202104 10 32 0.0 1.6 0.00 0.00 0.00 73 1011.5
20260506195604 11 32 1.6 4.8 0.00 0.00 0.00 70 1011.4
20260506195105 11 32 3.2 4.8 0.00 0.00 0.00 70 1011.3
20260506193605 11 32 0.0 1.6 0.00 0.00 0.00 68 1011.1
20260506192606 12 32 0.0 1.6 0.00 0.00 0.00 66 1011.0
20260506191605 12 32 0.0 4.8 0.00 0.00 0.00 64 1010.9
20260506191104 12 30 4.8 11.3 0.00 0.00 0.00 63 1010.9
20260506185605 13 36 4.8 8.0 0.00 0.00 0.00 61 1010.7
20260506183105 13 15 1.6 14.5 0.00 0.00 0.00 58 1010.6
20260506182105 13 13 4.8 9.7 0.00 0.00 0.00 57 1010.5
20260506181605 13 11 3.2 8.0 0.00 0.00 0.00 57 1010.5
20260506180105 13 13 1.6 11.3 0.00 0.00 0.00 57 1010.3
20260506175105 14 13 9.7 14.5 0.00 0.00 0.00 55 1010.2
20260506173605 14 19 8.0 16.1 0.00 0.00 0.00 57 1010.1
20260506173105 14 24 8.0 19.3 0.00 0.00 0.00 57 1010.1
20260506172605 14 11 8.0 19.3 0.00 0.00 0.00 55 1010.1
20260506172106 14 8 8.0 11.3 0.00 0.00 0.00 55 1010.1
20260506171605 14 11 8.0 12.9 0.00 0.00 0.00 53 1010.0
20260506170105 14 352 8.0 19.3 0.00 0.00 0.00 54 1010.0
20260506164606 14 12 4.8 12.9 0.00 0.00 0.00 51 1010.0
20260506164105 15 51 8.0 14.5 0.00 0.00 0.00 51 1010.0
20260506160605 15 14 8.0 19.3 0.00 0.00 0.00 51 1010.0
20260506160105 15 21 11.3 16.1 0.00 0.00 0.00 52 1010.0
20260506155104 15 52 1.6 11.3 0.00 0.00 0.00 51 1010.0
20260506154604 15 18 6.4 14.5 0.00 0.00 0.00 51 1010.0
20260506154104 15 17 9.7 19.3 0.00 0.00 0.00 50 1010.1
20260506153105 15 340 6.4 14.5 0.00 0.00 0.00 52 1010.0
20260506152106 15 350 6.4 14.5 0.00 0.00 0.00 50 1010.0
20260506151605 15 349 4.8 12.9 0.00 0.00 0.00 50 1010.0
20260506151105 15 351 8.0 14.5 0.00 0.00 0.00 50 1010.1
20260506150605 15 13 8.0 19.3 0.00 0.00 0.00 50 1010.1
20260506145105 15 323 9.7 19.3 0.00 0.00 0.00 49 1010.2
20260506144605 15 9 9.7 16.1 0.00 0.00 0.00 50 1010.2
20260506143105 15 3 11.3 19.3 0.00 0.00 0.00 50 1010.2
20260506142605 16 20 8.0 24.1 0.00 0.00 0.00 50 1010.2
20260506142105 16 320 3.2 14.5 0.00 0.00 0.00 51 1010.1
20260506141104 15 300 8.0 14.5 0.00 0.00 0.00 52 1010.2
20260506135104 15 13 9.7 16.1 0.00 0.00 0.00 51 1010.4
20260506133105 15 38 8.0 19.3 0.00 0.00 0.00 51 1010.3
20260506132105 15 352 12.9 22.5 0.00 0.00 0.00 52 1010.2
20260506123604 15 344 9.7 19.3 0.00 0.00 0.00 53 1010.5
20260506123106 15 356 11.3 20.9 0.00 0.00 0.00 52 1010.5
20260506122105 15 7 11.3 19.3 0.00 0.00 0.00 52 1010.5
20260506121605 14 35 9.7 22.5 0.00 0.00 0.00 53 1010.5
20260506120105 14 14 8.0 19.3 0.00 0.00 0.00 54 1010.6
20260506115104 15 25 4.8 19.3 0.00 0.00 0.00 53 1010.6
20260506114605 14 337 11.3 19.3 0.00 0.00 0.00 53 1010.7
20260506114104 15 13 9.7 24.1 0.00 0.00 0.00 51 1010.7
20260506112606 13 0 8.0 20.9 0.00 0.00 0.00 54 1010.7
20260506112105 13 14 11.3 16.1 0.00 0.00 0.00 56 1010.7
20260506110605 13 30 9.7 19.3 0.00 0.00 0.00 54 1010.7
20260506104605 13 355 11.3 22.5 0.00 0.00 0.00 57 1010.8